User: anonymous
Location: Strohbehn Observatory
(42.4649°N, 93.8239°W)
Time: 07:14:27
(UTC-05:00)
Language:

SL-16 R/B - Orbit

View from above orbital plane
View from above orbital plane
View from above satellite
View from above satellite

Ground track
Ground track

The orbit data is extracted from the following two-line orbital elements,

1 31793U 07029B   14273.44550461  .00000304  00000-0  18412-3 0   882
2 31793 070.9765 310.0821 0002355 269.2693 185.9367 14.14285001374634
Epoch (UTC): 30 September 2014 10:41:31
Eccentricity: 0.0002355
inclination: 70.9765°
perigee height: 843 km
apogee height: 846 km
right ascension of ascending node: 310.0821°
argument of perigee: 269.2693°
revolutions per day: 14.14285001
mean anomaly at epoch: 185.9367°
orbit number at epoch: 37463

The dashed part of the orbit path shows where the satellite is in the earth's shadow,  

DLR